GFSGL_850_rhum_000.txt.gz
RH
47 59 69 57 50 42 49 59 62 66 65 63 67 72 79 77 51 49 55 59 56 51 47 45 43 39 38 40 41 43 49 55 64 59 61 60 55 57 56 54 49 54 55
72 72 59 56 52 64 62 63 71 69 66 69 80 95 72 63 53 43 50 57 56 53 48 35 33 38 40 45 54 58 62 66 71 71 70 76 75 71 71 69 67 47 44
68 61 58 53 72 63 67 67 71 72 81 88 95 90 68 59 58 60 60 58 50 37 34 36 41 51 59 65 68 71 72 71 71 73 74 74 74 73 72 72 69 67 58
61 62 59 75 87 66 73 73 75 81 95 97 96 93 75 63 57 59 55 44 40 38 46 55 66 71 72 70 68 65 65 65 66 67 68 73 79 70 69 67 63 60 56
66 69 75 98 96 86 78 81 93 97 96 94 92 88 84 66 57 50 45 46 49 48 49 56 59 54 47 49 56 58 68 77 92 100 100 100 100 97 84 65 63 51 47
77 90 97 96 98 99 94 94 92 89 90 80 68 66 62 54 49 54 59 64 64 64 61 57 51 47 54 60 69 79 88 91 94 96 92 96 93 98 88 77 72 80 84
87 97 86 84 89 88 74 64 63 65 61 58 56 53 52 56 63 69 71 70 66 62 58 55 61 66 76 82 80 80 83 83 88 91 97 96 97 94 91 92 86 80 77
84 83 74 73 65 61 51 44 44 46 49 53 55 56 56 61 69 70 70 64 57 58 64 68 80 78 78 86 100 100 98 96 96 95 89 89 94 92 88 84 84 86 85
76 77 67 65 59 52 39 42 51 57 58 58 60 67 73 73 72 63 61 63 67 71 77 82 82 82 90 91 100 100 97 92 86 89 92 94 92 91 88 86 98 99 99
75 81 63 57 46 40 42 47 54 58 61 65 65 70 70 63 65 57 70 78 78 92 88 85 88 100 98 96 96 98 96 93 96 94 94 94 88 93 94 99 98 100 97
80 66 56 42 42 43 47 54 58 62 63 62 63 64 67 69 60 66 78 96 100 97 96 93 98 100 99 100 96 94 93 93 95 96 97 98 92 87 86 94 95 98 96
68 55 45 48 50 52 56 60 67 72 71 71 73 66 64 61 64 75 84 95 95 99 96 98 99 96 95 96 92 94 98 96 91 89 97 96 96 94 89 93 94 96 95
56 48 50 55 62 67 72 77 78 80 81 82 80 79 69 67 71 84 90 94 95 96 98 97 97 96 90 89 95 97 96 96 95 95 93 92 96 96 96 97 96 96 98
48 49 56 66 73 76 84 92 91 87 84 84 85 82 81 86 84 92 97 93 94 96 95 95 96 95 95 98 95 98 97 97 97 97 97 96 96 96 96 96 96 96 96
50 53 66 76 83 78 89 97 96 91 90 91 88 86 99 99 97 99 97 95 96 96 96 96 93 92 90 92 96 97 96 96 96 96 96 96 98 97 97 97 96 96 97
58 61 77 86 88 78 85 89 92 91 90 91 82 83 100 100 100 100 96 96 96 95 95 95 95 96 95 97 96 91 96 96 96 96 96 96 96 96 98 95 96 95 95
63 78 90 94 84 84 86 87 85 83 84 81 78 84 88 100 100 96 95 96 96 96 95 95 95 95 95 98 100 99 97 98 97 97 96 96 97 97 96 96 98 97 96
67 92 99 90 88 86 86 86 92 88 85 76 77 86 88 97 97 96 95 96 96 96 95 95 96 96 96 99 100 99 97 96 96 97 96 96 96 96 98 96 96 99 98
100 98 89 87 89 89 90 87 85 85 88 87 82 76 86 94 97 97 97 96 95 96 95 95 96 96 96 99 98 99 99 99 98 98 96 96 95 94 95 96 93 94 96
97 90 84 86 91 93 88 76 80 86 91 92 89 87 88 89 90 94 96 96 96 96 96 95 96 96 98 96 94 95 95 96 93 95 94 97 96 98 93 91 90 90 95
92 88 86 93 93 92 88 83 88 90 94 93 94 92 95 97 97 98 96 96 96 96 96 95 96 94 91 86 75 76 88 97 96 95 95 93 93 90 92 91 86 89 92
96 94 90 90 90 91 86 80 84 86 91 94 91 92 95 96 96 97 96 96 95 83 42 56 69 72 71 68 66 69 62 71 92 95 95 95 93 90 92 91 92 92 92
100 100 99 94 90 87 84 85 86 89 89 93 92 89 95 96 96 97 97 88 42 15 14 15 27 38 48 57 65 69 65 60 62 83 95 97 91 90 88 89 91 92 92
100 100 100 99 92 90 88 90 87 82 86 86 86 86 94 96 97 97 94 26 16 15 16 16 15 16 20 28 38 43 52 57 52 48 64 91 94 91 89 88 88 91 90
100 100 100 100 95 93 92 93 95 94 87 91 80 58 73 94 96 96 71 25 18 15 14 14 14 14 14 16 17 19 22 27 28 38 43 46 56 74 83 87 88 88 89
100 100 100 100 100 95 93 94 96 95 89 87 70 44 45 28 54 91 96 96 40 16 15 14 15 15 16 16 16 16 16 16 16 17 22 26 22 23 29 38 55 69 80

GFSGL_850_rhum_003.txt.gz
RH
64 73 63 51 50 52 61 63 61 71 76 63 68 65 78 95 97 93 86 77 59 55 55 53 51 48 53 66 69 68 67 66 64 55 60 67 69 65 61 60 63 57 58
73 58 53 58 61 66 74 69 76 83 72 72 76 83 96 97 84 71 63 63 61 60 48 36 30 31 36 39 51 70 80 78 76 71 67 71 76 73 75 77 75 74 74
58 56 61 67 74 91 82 82 86 87 89 89 95 96 92 80 75 63 53 52 54 48 40 38 41 47 54 60 64 78 81 79 77 74 71 70 74 76 73 75 77 77 76
48 51 69 87 92 91 91 92 95 97 97 93 89 84 86 85 83 69 63 63 47 44 46 48 54 60 64 63 67 72 73 74 73 74 71 69 69 69 77 76 74 79 76
60 73 84 85 94 99 97 96 87 68 57 58 62 63 66 65 61 56 49 48 52 54 56 56 57 58 57 51 71 88 91 90 89 88 87 86 84 85 89 82 82 84 85
74 80 92 85 81 71 62 59 49 42 44 50 52 53 52 50 52 55 61 69 68 70 76 63 64 50 44 52 62 72 82 100 98 93 90 86 80 79 79 80 78 79 76
70 80 72 65 59 58 56 48 36 36 41 45 49 51 52 56 63 69 74 79 85 73 73 89 87 77 86 100 100 99 95 99 100 100 100 97 93 91 88 88 87 86 80
66 73 76 64 54 51 41 38 40 42 46 48 51 57 64 67 72 71 70 68 73 77 77 67 99 100 100 94 100 100 100 100 100 100 100 100 99 96 93 92 87 86 87
70 79 76 61 52 40 42 44 46 48 50 56 63 66 66 63 65 69 68 84 100 98 70 98 100 100 100 97 97 98 100 100 99 85 88 94 91 89 91 96 98 98 96
92 80 68 55 44 50 52 53 56 60 66 70 71 72 72 70 67 64 74 100 100 100 100 100 100 94 95 96 95 93 100 100 98 97 98 100 99 95 93 98 100 98 94
71 77 65 48 52 56 62 65 71 78 78 78 77 74 68 66 60 63 74 100 100 100 100 100 100 98 98 96 98 98 100 100 100 100 100 100 100 92 99 99 93 97 98
72 69 54 50 55 65 74 76 86 90 89 84 76 89 100 90 82 74 89 94 100 96 98 97 96 96 96 93 92 95 95 94 98 96 100 100 100 100 100 100 100 100 100
61 58 50 52 60 75 85 86 96 98 98 94 100 100 100 100 100 96 94 100 100 100 98 96 94 95 95 94 95 97 95 96 97 98 100 100 98 99 98 95 96 96 96
60 53 56 60 73 87 92 87 97 100 100 100 100 100 100 100 100 100 100 100 98 95 95 95 96 96 95 98 97 95 95 97 96 96 96 96 96 98 99 97 94 94 95
60 58 63 68 86 96 86 87 92 94 96 96 100 100 100 100 100 98 98 100 96 95 96 96 95 95 93 98 100 96 97 97 98 98 97 97 98 97 97 98 99 95 95
65 64 66 83 96 93 86 81 82 86 84 80 80 84 100 100 100 99 95 96 95 96 96 96 95 95 92 98 100 100 99 97 97 96 98 97 98 98 99 97 96 97 98
64 66 80 96 94 89 83 81 79 68 68 81 79 78 82 100 100 95 95 96 96 96 96 96 96 95 94 100 98 99 100 100 98 96 96 96 97 99 97 98 99 100 100
71 87 91 91 87 86 86 81 70 72 75 78 83 79 80 90 95 95 95 96 96 96 96 96 96 95 96 99 98 96 96 94 93 95 95 97 97 98 97 96 97 98 100
87 85 87 83 85 89 86 79 74 77 80 88 85 76 76 92 95 96 96 95 96 96 96 96 96 96 95 89 91 96 96 94 91 91 95 96 96 96 96 96 94 97 97
87 93 88 86 90 90 88 77 71 69 74 87 87 84 85 91 90 93 94 96 96 96 94 93 92 90 84 74 69 74 94 94 91 91 92 95 93 94 97 95 92 94 96
99 98 95 92 92 89 87 78 67 66 74 83 82 82 94 96 97 99 97 95 84 31 23 48 58 64 63 70 72 63 65 89 96 93 94 92 92 92 96 98 95 95 94
100 100 100 97 93 89 87 81 69 56 66 64 63 74 93 96 97 98 95 66 21 14 15 20 34 48 54 60 65 62 59 56 73 94 95 92 90 90 94 96 94 93 93
100 100 100 100 97 95 93 86 81 66 63 62 52 62 89 93 96 97 85 44 19 17 19 20 22 28 39 45 49 48 47 48 56 66 84 95 91 89 91 92 89 89 89
100 100 100 100 99 97 95 91 87 80 66 64 56 48 72 90 94 96 91 53 21 17 18 18 19 19 20 23 25 29 32 36 39 41 45 56 76 88 89 89 90 90 89
100 100 98 98 98 97 95 95 91 88 73 63 52 32 38 33 68 94 96 96 85 22 16 17 18 18 18 19 19 19 18 19 20 23 25 24 28 38 54 71 77 82 81
100 100 98 98 98 98 97 95 94 92 83 64 54 24 18 18 21 32 42 67 80 62 15 15 16 17 17 17 17 18 19 19 19 19 20 20 20 20 23 32 48 61 71

GFSGL_850_rhum_006.txt.gz
RH
74 73 74 72 74 76 82 87 93 95 90 86 88 94 100 99 94 94 94 97 84 78 74 67 60 56 56 53 51 54 55 53 50 46 46 45 49 55 59 60 58 57 57
57 75 80 81 81 83 90 98 100 100 99 98 99 96 96 94 98 98 96 85 71 64 65 66 61 51 55 57 58 61 59 58 56 53 50 50 51 52 57 61 60 56 54
73 73 75 85 87 92 99 100 100 99 98 98 99 99 99 98 98 89 78 71 71 72 70 65 61 65 68 64 67 67 63 59 58 57 54 52 52 53 54 58 60 61 62
75 77 79 86 99 92 86 98 97 96 94 90 84 83 82 74 70 66 65 70 72 68 74 78 76 77 76 73 70 67 63 60 57 55 52 51 52 52 54 55 55 59 60
84 79 85 87 85 80 77 74 72 68 58 59 58 60 63 63 56 63 68 71 73 75 79 80 79 81 83 64 70 74 69 65 62 58 57 56 58 58 58 59 62 65 66
81 83 81 81 76 70 67 61 56 55 58 60 61 63 67 66 74 66 64 86 80 74 72 73 75 79 79 81 87 84 91 97 83 77 76 80 74 72 76 78 86 86 80
81 79 81 83 68 63 56 51 55 59 63 66 68 75 78 79 80 68 58 67 84 83 82 81 78 72 77 82 88 95 96 100 100 100 100 98 94 95 96 95 92 90 82
78 78 85 77 66 58 55 57 60 60 64 67 73 79 82 79 82 70 63 74 94 93 91 87 81 78 81 98 100 100 100 100 100 100 100 97 93 94 93 90 89 94 96
74 83 86 72 69 56 56 60 63 66 69 73 82 85 86 89 99 86 72 100 99 98 94 88 94 97 97 95 99 96 100 97 96 96 85 82 85 86 87 98 97 95 92
75 86 76 75 66 59 63 66 71 69 72 86 99 100 100 100 100 100 100 100 100 100 95 97 94 97 92 96 95 96 100 98 95 99 99 97 97 97 82 93 99 97 93
72 77 78 75 62 64 66 68 72 74 88 99 99 98 100 99 100 99 100 100 100 100 100 99 98 97 98 96 96 96 100 100 100 100 98 96 98 99 98 97 97 96 96
73 74 78 72 66 68 69 70 75 79 92 92 92 92 92 97 95 97 98 97 95 98 100 100 97 95 93 93 94 100 92 93 99 97 100 100 100 98 98 98 98 100 98
78 78 76 72 72 73 73 80 82 84 96 97 91 89 85 91 92 94 93 94 96 98 97 96 93 93 94 98 97 94 94 96 97 99 98 96 97 100 96 94 96 99 99
82 75 73 72 75 80 83 86 81 96 97 94 90 88 91 95 97 100 100 100 98 95 96 96 95 95 96 95 97 96 98 100 99 100 100 100 97 96 95 95 94 95 94
72 71 77 85 89 91 87 85 95 100 94 91 96 99 100 100 100 99 100 100 97 96 97 97 95 95 95 98 95 98 100 100 100 100 100 100 100 100 97 97 95 95 96
57 81 87 85 99 100 86 88 94 94 84 73 79 87 100 100 100 100 96 96 95 95 98 96 96 95 98 100 100 100 100 100 100 100 100 100 100 100 99 97 100 99 98
59 65 97 100 100 100 100 100 100 99 97 94 94 89 89 100 100 96 95 96 95 96 96 96 96 96 98 100 100 100 100 100 100 100 100 99 100 100 100 94 97 98 98
54 80 89 100 100 100 100 100 100 100 100 98 98 95 97 98 99 92 94 96 96 95 96 96 96 100 100 100 100 100 98 100 100 100 100 100 99 100 100 100 99 96 96
86 100 88 87 93 90 99 100 100 100 100 100 97 96 100 100 100 98 96 100 98 96 96 97 100 100 100 100 100 100 100 100 100 100 100 100 100 100 100 100 100 99 96
100 98 92 99 100 100 100 100 100 100 100 100 98 100 100 100 100 100 100 100 100 85 78 100 100 100 100 100 100 100 100 100 100 100 100 100 100 100 100 100 100 100 100
100 100 97 100 100 100 100 100 100 100 100 100 100 98 86 100 100 100 100 85 68 58 56 86 97 95 92 99 100 100 100 100 100 100 100 100 100 100 100 100 100 100 100
100 100 100 100 100 100 99 100 100 100 100 100 100 100 96 100 100 100 100 78 26 22 24 30 43 49 49 51 55 82 100 100 99 90 100 100 100 100 99 100 100 100 100
100 100 100 100 100 99 100 100 100 100 100 100 100 100 100 100 100 100 100 78 27 18 18 20 22 23 25 28 33 38 42 44 43 48 63 100 100 100 100 100 100 100 100
100 100 100 100 100 100 100 100 100 100 100 100 100 100 100 98 94 99 94 94 89 35 17 18 19 20 21 20 20 21 22 22 24 26 26 46 88 100 100 100 100 100 100
100 100 100 100 100 100 100 100 100 100 100 100 100 100 100 70 44 50 61 89 93 87 30 17 17 18 18 18 19 19 20 20 20 20 20 24 25 32 46 97 99 100 100
97 100 100 100 100 100 100 99 100 100 100 100 100 100 98 73 27 31 36 36 34 32 32 25 19 18 18 18 19 20 20 20 19 18 18 19 20 20 23 26 32 98 100

GFSGL_850_rhum_009.txt.gz
RH
69 71 73 74 74 72 70 72 86 86 92 90 92 81 88 88 93 98 99 98 97 97 93 83 75 71 66 57 52 53 53 56 58 51 48 46 46 48 50 53 59 61 60
68 66 64 64 66 65 72 83 89 92 98 97 100 100 100 99 98 98 98 93 86 84 84 82 79 72 68 61 57 55 54 53 52 50 50 49 49 49 50 53 55 54 54
68 64 60 61 67 75 82 83 87 84 80 80 79 80 73 70 64 60 58 61 69 70 68 68 67 65 62 61 64 62 60 56 55 52 50 48 48 48 48 49 51 53 55
66 61 61 69 72 73 80 79 70 64 60 55 52 53 54 54 55 54 58 66 63 56 59 63 65 67 69 71 72 71 66 63 58 56 53 50 47 46 47 48 49 51 53
65 61 64 67 68 69 70 64 60 56 53 52 53 55 56 57 55 62 70 79 78 72 67 64 62 67 73 73 75 78 81 78 70 60 57 54 50 48 48 50 52 55 58
63 62 62 65 80 75 64 58 50 50 52 56 57 58 61 59 64 71 72 75 81 77 73 68 67 67 75 76 76 74 74 88 84 81 73 69 65 65 65 68 72 74 72
57 60 58 74 83 71 62 49 48 51 54 57 58 60 64 70 80 82 77 78 94 88 82 80 79 69 72 73 76 83 97 98 98 99 97 98 91 88 90 93 93 92 90
56 57 66 74 79 67 58 49 50 51 56 58 61 69 76 76 93 95 89 93 95 90 88 89 90 82 76 85 99 96 93 96 96 98 99 99 95 92 92 92 96 96 95
67 59 62 73 84 66 54 52 53 55 58 60 69 81 92 96 94 94 90 97 98 96 92 94 96 95 88 84 93 98 98 96 93 96 92 86 79 78 78 92 96 97 94
68 53 64 67 71 69 57 55 55 55 60 76 90 95 97 97 96 94 96 95 99 100 97 96 90 96 94 90 92 95 97 99 99 98 97 98 98 92 87 86 85 93 88
66 60 71 81 76 63 56 56 55 59 74 99 85 88 96 99 95 98 97 100 96 98 98 96 91 97 96 96 96 95 96 98 97 100 99 95 96 95 92 95 90 92 83
72 73 84 88 74 58 58 55 62 66 84 94 92 87 91 93 96 97 98 84 94 98 98 96 97 94 93 91 92 94 94 92 94 99 95 96 97 98 96 95 97 94 95
97 98 98 88 71 57 57 57 64 73 88 96 88 91 87 94 95 98 92 93 95 93 96 96 95 95 93 94 96 91 94 96 96 94 95 95 95 95 94 93 93 94 93
97 94 86 71 63 63 60 64 67 82 97 93 88 88 93 97 89 99 100 96 98 95 96 94 95 96 98 96 94 94 95 95 94 95 94 95 96 95 95 96 96 94 95
97 81 73 69 67 68 69 74 79 95 92 90 94 99 100 100 99 100 100 100 100 96 95 95 95 96 96 95 95 95 95 94 95 95 95 96 94 94 95 96 94 99 96
91 83 81 90 80 86 77 78 88 88 88 85 92 94 84 100 100 100 100 98 95 95 96 98 97 99 95 95 95 97 100 96 97 96 95 95 96 96 96 96 92 93 100
76 97 91 86 92 90 95 96 100 99 94 95 98 90 85 90 100 100 100 96 98 95 98 100 98 96 96 99 95 96 97 96 96 95 95 97 99 95 95 95 93 97 96
93 95 97 95 96 98 100 100 100 100 98 97 98 96 94 95 100 100 100 100 100 98 96 99 98 100 100 100 100 100 96 95 96 95 96 96 100 97 97 99 99 100 100
96 100 99 100 100 100 100 100 100 100 98 96 97 91 97 100 99 100 100 100 100 100 100 100 100 100 100 100 100 96 97 95 96 95 94 94 97 96 97 100 100 100 100
82 99 99 100 100 99 100 100 100 100 98 96 100 100 100 100 100 100 100 100 100 100 100 100 100 100 100 100 100 100 100 100 99 100 96 93 94 96 95 97 100 100 97
92 100 100 100 100 100 100 100 100 100 100 99 100 99 88 97 100 100 100 100 100 100 100 100 100 100 100 100 100 100 100 100 100 100 100 98 95 96 95 94 97 94 96
97 100 100 100 100 100 100 100 100 100 100 100 100 100 94 100 100 100 100 100 96 48 26 56 95 71 52 71 75 88 100 96 94 100 100 100 99 96 94 94 97 94 95
100 100 100 100 100 100 100 100 100 100 100 100 100 100 100 100 100 100 100 100 100 70 21 18 20 20 20 21 22 23 24 24 26 30 72 100 100 100 96 98 97 100 100
100 100 100 99 99 100 100 100 100 100 100 100 99 96 100 100 100 100 100 100 100 100 52 22 18 18 18 18 19 20 20 20 20 21 32 100 100 100 100 100 100 99 99
100 100 99 97 95 98 100 100 100 100 98 99 96 97 100 100 100 100 100 100 100 92 68 56 35 21 19 19 20 20 21 20 19 18 18 58 38 43 82 100 68 100 99
100 100 100 98 98 96 99 100 100 100 100 100 100 100 100 100 100 100 100 95 82 51 42 27 25 24 23 22 22 23 24 23 20 19 18 18 18 20 20 62 33 100 100

GFSGL_850_rhum_012.txt.gz
RH
69 70 67 65 64 65 65 70 77 70 70 80 86 83 89 88 78 79 74 71 74 72 76 92 97 97 98 97 88 78 61 57 63 60 58 54 50 53 63 59 76 66 60
70 68 64 61 60 66 70 76 74 80 74 76 77 78 67 63 58 59 58 57 57 69 79 75 72 70 71 70 68 67 64 63 62 61 61 59 53 50 49 49 54 58 57
64 60 61 58 63 68 66 74 78 75 67 62 59 54 53 53 54 54 56 59 63 63 63 56 67 66 63 63 62 66 68 70 69 69 66 60 57 53 50 49 49 50 53
61 58 60 59 64 65 67 69 71 65 60 54 53 54 55 56 57 59 60 60 60 58 53 51 64 68 70 71 87 87 76 71 72 70 65 61 59 55 52 49 45 45 47
71 75 59 61 62 66 69 74 67 58 51 51 54 56 56 59 60 59 64 69 71 69 65 62 70 71 70 69 74 84 82 77 69 70 75 80 73 66 62 67 73 73 68
73 80 70 75 76 79 65 71 64 51 51 51 56 57 60 66 69 76 79 80 84 86 81 73 81 84 77 82 87 89 81 71 73 80 86 86 82 80 78 80 83 81 81
54 58 71 80 79 90 78 69 68 55 53 52 56 62 66 75 79 84 93 93 84 77 84 90 90 91 88 86 95 93 94 91 96 95 96 87 80 76 73 69 72 83 91
42 58 76 90 84 72 78 69 61 56 53 55 61 74 74 71 71 80 83 87 80 75 82 84 83 89 93 95 96 93 87 84 78 86 90 89 97 94 95 90 88 88 79
38 57 79 80 79 74 73 68 62 52 55 64 77 79 81 78 76 94 96 95 92 86 75 86 92 82 79 79 89 86 72 73 75 84 97 97 97 96 95 94 88 83 84
65 75 82 85 92 78 84 69 57 56 67 77 72 74 72 74 91 96 96 97 93 90 82 83 79 88 97 95 96 97 97 98 99 84 69 69 69 74 86 96 97 100 86
76 82 94 87 97 77 67 58 57 62 67 73 82 79 72 87 99 98 96 100 99 90 89 89 90 97 97 95 92 89 86 87 82 80 80 77 78 82 81 85 84 92 95
78 82 84 97 96 82 68 63 63 62 70 78 80 79 91 93 91 84 99 100 90 95 97 96 95 93 93 92 94 95 94 91 87 90 91 92 94 94 94 94 92 96 93
75 88 88 91 82 74 67 59 62 68 77 75 78 86 84 80 83 94 88 84 93 95 98 95 96 97 93 95 95 95 95 94 96 97 96 95 95 95 92 92 92 92 96
89 86 89 74 69 66 66 67 71 75 73 82 88 83 83 86 80 90 92 96 96 94 95 95 97 95 96 96 96 94 96 96 95 97 95 96 97 97 100 99 97 96 96
91 87 75 82 78 78 76 78 81 84 86 88 81 87 89 81 90 100 100 98 99 97 96 96 95 94 94 95 93 94 97 95 95 95 96 98 97 97 95 97 96 88 95
85 78 87 81 79 85 88 85 88 87 91 84 93 94 86 86 99 100 100 100 99 96 97 96 95 96 95 96 96 95 95 96 96 97 96 96 96 96 95 94 97 97 88
91 72 91 86 97 95 90 88 95 95 92 92 96 91 94 97 100 100 100 100 97 96 96 97 99 95 94 96 97 96 97 97 96 97 96 97 95 96 96 90 87 92 96
90 90 85 92 94 95 100 100 99 94 91 92 94 95 99 96 83 97 100 99 98 97 95 97 97 96 96 98 97 98 99 97 93 95 96 97 95 96 98 92 93 93 98
92 89 86 89 100 100 100 100 100 96 93 92 94 95 96 79 86 96 98 97 97 97 89 96 95 98 99 98 97 94 99 100 97 94 96 98 98 95 94 93 95 95 96
86 88 91 97 100 100 100 99 100 97 94 90 91 91 92 88 84 94 96 98 98 74 78 86 98 93 89 88 90 95 97 96 96 96 95 98 99 98 97 93 91 91 92
92 94 95 100 100 100 100 100 99 99 95 92 92 93 94 91 93 95 97 98 100 59 34 40 72 54 37 44 50 61 69 57 60 70 93 94 98 96 97 96 95 94 94
92 86 100 99 100 100 100 100 100 100 97 95 94 95 92 96 99 91 96 100 100 96 56 22 23 22 22 22 24 24 23 23 24 30 69 90 95 94 95 98 94 93 96
98 100 100 98 97 96 99 100 100 99 96 98 94 93 95 95 94 94 97 100 100 95 84 44 23 20 19 19 19 20 20 19 19 20 42 68 88 82 98 97 100 99 93
89 100 100 98 95 96 96 98 99 100 97 95 94 94 94 95 95 96 94 98 96 75 69 68 55 34 23 20 20 21 22 21 20 18 22 41 56 54 76 86 88 100 97
86 95 100 94 92 94 93 98 100 100 97 92 93 94 97 97 97 98 98 99 88 64 48 39 29 26 26 25 23 23 25 25 22 20 19 20 23 24 34 54 49 88 93
87 100 99 96 97 96 95 94 98 100 100 100 98 99 98 96 97 100 100 96 84 66 47 50 44 40 39 35 27 26 27 27 25 21 20 18 18 17 17 20 28 47 53

GFSGL_850_rhum_015.txt.gz
RH
64 65 65 66 63 62 60 62 64 52 41 63 71 70 63 56 54 54 54 55 59 62 66 78 82 76 81 88 80 76 80 81 96 81 68 65 60 58 56 56 55 74 93
57 60 65 64 62 59 58 62 58 48 66 68 65 63 56 53 54 56 57 57 58 62 66 66 64 61 52 63 72 70 67 64 66 69 73 67 66 61 57 55 53 54 73
50 63 65 63 76 85 77 65 62 66 67 67 60 54 53 54 54 56 59 61 61 60 60 60 57 52 47 54 71 78 80 79 80 78 72 65 64 64 59 55 51 48 48
48 57 56 61 76 84 78 80 74 78 69 58 51 52 50 54 57 60 61 62 62 64 73 74 72 70 64 65 81 79 80 76 76 78 73 63 50 48 52 56 52 54 47
48 47 57 67 83 82 83 90 94 76 59 52 53 51 56 58 61 63 66 69 68 68 77 71 62 64 94 93 97 96 93 97 93 86 73 67 69 64 60 73 82 79 80
38 39 48 62 70 76 90 98 83 67 55 56 50 56 61 66 70 75 81 77 69 73 72 66 62 80 93 95 92 95 95 97 94 89 85 90 85 81 69 66 67 74 78
38 39 58 65 60 79 96 75 86 78 60 53 56 62 67 73 80 90 78 76 86 84 85 78 69 76 82 83 89 93 94 94 97 98 96 92 84 72 76 84 82 88 92
37 42 51 56 62 72 71 98 77 75 60 56 66 71 72 82 77 70 78 86 92 96 89 82 75 85 88 86 87 84 78 75 74 74 73 70 87 81 93 91 94 92 96
46 52 56 63 72 97 99 93 94 70 58 67 69 68 75 78 71 83 91 87 89 85 85 82 86 87 84 87 90 89 88 85 81 85 89 96 97 93 96 97 94 98 93
53 62 65 66 92 82 84 80 69 61 66 67 67 74 76 70 83 96 96 97 98 93 86 80 81 93 97 97 97 91 82 79 86 85 91 94 87 74 68 67 71 77 94
61 67 75 70 84 92 92 87 70 65 64 66 73 74 69 65 77 81 92 100 100 100 92 92 94 93 92 94 95 97 95 96 98 88 80 80 82 88 90 90 86 87 84
68 74 78 78 84 88 81 68 64 65 68 71 72 67 68 69 70 61 78 88 100 100 94 94 97 97 96 93 95 96 95 94 95 96 97 94 92 93 95 97 97 96 97
68 78 79 82 76 74 72 71 71 72 76 75 73 76 72 78 71 75 87 95 91 95 96 98 98 95 96 96 96 96 96 97 96 97 97 96 96 95 94 96 97 94 94
73 78 82 82 84 83 78 73 77 80 78 78 83 78 85 82 76 91 94 95 92 92 94 95 96 96 96 97 94 95 96 95 95 95 95 96 96 96 96 97 91 96 89
84 71 64 77 80 78 86 83 86 84 81 85 85 89 85 82 84 100 99 97 97 97 94 95 94 93 94 95 95 96 96 94 95 96 96 95 95 96 96 97 100 98 98
88 73 66 69 84 100 98 93 86 84 85 87 92 93 86 85 97 100 100 100 98 95 94 96 96 95 93 97 95 95 95 96 96 97 97 96 95 97 95 95 92 96 97
84 85 72 82 82 92 96 100 88 85 94 89 90 98 92 91 100 87 100 98 86 87 87 96 96 100 95 95 96 98 99 99 97 97 96 96 97 98 93 88 90 89 96
98 82 96 96 92 87 100 100 98 95 92 90 94 97 93 99 93 75 100 87 68 46 66 88 100 98 95 92 94 98 99 96 95 96 96 98 98 98 91 88 88 91 95
92 90 91 96 96 99 100 100 100 98 98 95 94 95 99 100 87 70 85 89 89 50 31 57 82 80 72 74 77 87 91 89 91 96 97 97 96 98 99 97 92 93 92
93 95 98 99 97 99 100 100 100 98 97 96 95 94 97 97 90 86 80 86 91 82 29 23 41 40 35 39 43 48 40 32 46 87 96 96 95 97 99 100 98 99 92
100 100 100 98 96 96 100 98 99 99 98 94 93 95 94 93 92 92 95 81 82 87 81 33 20 20 19 22 24 23 22 22 24 55 85 92 92 94 99 99 97 98 94
100 99 100 94 96 100 98 96 100 99 95 93 99 93 93 91 94 98 96 91 84 71 80 76 43 24 19 19 19 20 21 20 19 21 50 69 70 90 98 94 100 92 93
73 67 80 100 100 95 94 96 99 97 97 94 95 94 93 95 96 97 98 93 87 80 55 60 59 50 35 24 21 21 23 24 22 20 21 41 45 52 84 87 97 99 90
77 82 77 91 100 95 91 93 96 96 98 94 93 100 99 95 95 95 96 95 94 78 57 41 41 30 27 27 25 24 24 26 26 23 21 23 25 28 37 56 84 98 84
95 98 94 96 98 93 91 95 95 97 98 97 94 94 96 95 95 95 97 95 95 91 68 50 51 50 44 45 37 28 27 28 28 25 22 22 19 21 20 25 32 48 49
100 96 90 89 100 97 96 91 93 97 100 100 100 98 98 98 96 96 96 94 94 92 90 76 64 68 84 90 90 66 41 38 38 30 22 19 17 16 18 17 18 20 20

GFSGL_850_rhum_021.txt.gz
RH
45 44 51 67 58 45 46 69 71 77 83 86 88 83 74 64 56 52 52 46 46 55 60 62 62 65 62 62 56 52 55 59 57 54 73 80 80 73 59 49 55 63 58
42 41 43 49 37 29 61 87 89 71 73 76 82 92 84 61 53 52 50 51 56 64 68 72 76 78 71 61 59 54 52 56 64 59 64 92 91 84 75 67 57 53 61
39 38 37 35 30 26 38 39 48 55 73 79 94 85 68 79 54 57 56 61 70 74 77 87 78 69 71 69 63 58 56 89 97 100 87 82 85 84 78 66 54 53 47
38 35 33 30 33 40 43 48 42 65 91 99 89 76 61 60 74 62 68 77 81 84 85 70 77 86 85 82 78 68 84 98 97 94 94 96 92 90 85 73 61 53 46
32 32 34 40 44 48 52 50 51 97 99 97 92 62 71 80 69 72 78 82 82 72 73 83 86 86 97 98 95 94 94 93 88 97 95 95 89 94 92 77 72 61 58
33 38 44 47 50 56 58 53 66 81 87 97 84 80 81 73 75 78 77 70 71 78 83 86 90 88 80 82 72 99 100 98 92 87 90 92 95 98 95 90 87 77 71
40 46 51 56 60 62 57 64 71 89 100 78 90 78 79 75 78 74 65 64 62 62 70 85 87 79 78 88 85 81 91 95 97 97 94 89 89 85 94 90 82 77 72
47 54 58 60 65 63 70 80 75 95 91 84 72 77 75 75 75 66 60 54 50 61 72 77 84 92 92 99 96 96 86 86 92 94 96 97 94 92 91 82 82 86 85
51 55 61 68 68 71 89 96 83 81 75 75 78 78 75 77 69 62 54 51 60 67 73 82 98 99 96 97 96 98 96 82 78 78 80 80 90 97 93 96 96 100 100
55 64 69 69 75 72 88 97 91 89 79 79 77 77 80 72 68 57 48 59 73 79 81 84 90 93 95 94 95 95 96 86 92 90 87 88 87 76 82 97 97 100 95
66 68 69 78 78 78 81 80 78 74 75 75 81 82 77 75 66 55 49 66 97 97 93 90 94 100 96 95 95 96 96 94 94 95 94 94 96 96 83 74 72 74 75
74 77 81 84 77 84 81 80 80 81 82 85 86 80 78 74 69 62 53 80 100 99 94 91 100 100 98 96 96 98 95 95 97 95 94 94 95 96 97 97 98 96 92
77 88 92 90 73 84 85 87 85 84 89 90 82 82 81 77 76 69 57 77 86 89 86 94 96 92 70 84 96 96 94 95 96 94 95 95 96 96 96 96 96 95 96
82 98 100 96 76 68 74 84 92 96 97 93 83 83 82 81 78 71 69 78 73 54 45 81 89 66 66 81 95 92 94 96 97 97 96 96 96 96 96 96 96 97 95
89 95 96 98 91 71 79 100 100 100 99 92 86 86 86 83 85 92 97 76 76 43 27 39 51 49 50 60 80 88 88 94 92 95 94 95 96 95 96 96 97 96 92
99 95 97 98 97 94 96 97 100 100 98 90 90 88 86 88 86 91 87 70 76 55 17 27 42 45 46 57 63 73 79 87 94 96 97 96 96 95 95 95 96 97 97
100 99 95 98 96 99 100 99 100 97 98 94 90 87 89 93 93 91 88 74 71 74 25 18 30 29 31 45 53 61 46 66 94 97 97 97 97 96 95 95 95 96 97
100 100 95 98 98 96 100 99 96 91 97 93 91 89 89 91 93 92 92 90 65 68 76 40 19 19 20 27 31 28 24 31 75 96 96 96 97 96 96 96 95 94 95
99 99 99 99 100 98 100 98 99 99 96 96 95 90 90 94 92 94 95 94 85 64 66 77 47 23 19 19 21 22 21 20 41 88 94 94 96 96 96 97 98 98 92
98 96 98 99 100 100 98 95 98 96 95 96 94 93 95 98 92 94 96 94 91 81 69 56 76 67 44 26 20 21 22 22 19 25 52 68 83 95 96 96 95 93 92
96 96 96 99 99 100 98 95 97 95 93 94 94 97 95 94 93 95 96 94 92 90 84 62 44 40 37 36 31 25 23 25 24 21 21 36 45 51 86 94 94 96 88
100 97 99 98 100 99 91 98 99 95 95 99 90 95 96 93 95 97 94 90 90 86 89 72 45 46 42 33 32 30 26 25 27 26 22 22 26 31 39 67 65 88 85
99 99 99 97 80 72 80 90 94 95 91 93 94 94 94 94 94 94 90 90 88 87 87 86 74 65 58 62 64 63 48 30 30 31 26 23 21 20 20 22 30 39 44
98 98 98 98 92 92 91 89 94 94 93 93 97 98 97 97 95 92 88 86 84 83 84 84 86 85 75 74 83 87 87 66 45 46 44 26 20 17 16 17 19 21 21
100 99 99 99 99 100 100 99 98 95 94 92 93 94 100 97 93 91 90 85 79 78 82 85 87 85 87 84 87 88 89 78 71 73 75 58 26 17 15 16 18 19 19
94 94 98 99 99 100 100 100 98 98 96 92 92 94 95 94 94 89 86 83 78 75 78 83 86 87 87 86 87 89 89 84 79 75 67 55 35 20 17 19 23 28 29

GFSGL_850_rhum_024.txt.gz
RH
37 40 41 50 45 35 29 26 43 56 48 46 73 91 93 82 95 84 70 57 55 58 66 70 72 74 77 82 74 67 65 60 58 51 51 47 52 57 84 76 69 44 46
41 41 39 36 32 29 37 42 46 48 40 63 83 82 91 95 75 71 62 61 61 66 74 79 80 85 82 70 75 80 77 72 67 73 66 58 59 63 94 94 74 63 60
39 38 33 32 33 38 42 47 47 43 40 75 84 84 98 72 83 70 65 64 68 75 82 85 84 76 76 80 86 88 88 83 84 99 91 84 82 87 85 93 84 71 63
34 31 33 35 40 47 51 53 51 42 55 72 85 93 98 80 72 72 67 71 76 80 76 70 71 76 85 89 94 94 97 94 94 93 90 85 97 82 97 96 94 81 70
33 34 40 45 50 53 53 55 51 53 75 97 88 95 95 89 82 73 78 76 73 66 57 53 56 65 100 100 100 99 99 97 95 94 89 88 92 88 95 96 96 92 75
36 40 44 50 53 55 58 59 60 71 85 100 100 95 83 80 81 84 76 72 62 50 44 52 65 67 71 100 93 100 100 97 95 97 90 93 85 79 78 96 97 97 96
39 41 50 55 59 58 62 65 77 80 85 93 92 87 77 80 80 76 74 60 46 42 56 66 72 77 83 87 86 90 92 93 95 96 97 91 97 92 81 81 92 97 90
46 52 56 61 58 55 64 63 89 91 99 93 79 77 80 80 78 77 62 48 40 51 62 74 81 85 86 97 98 96 92 90 95 94 91 86 80 87 97 94 92 92 84
50 56 63 63 54 62 69 69 89 94 96 92 79 82 80 81 78 67 54 41 48 57 68 78 87 87 91 98 95 96 91 93 96 95 96 94 88 75 84 96 97 94 94
60 64 60 61 66 76 75 78 83 85 85 78 83 81 86 78 71 63 56 46 55 62 70 78 80 91 100 96 96 96 95 93 88 85 92 93 96 87 78 76 84 98 99
56 53 56 75 84 83 73 77 77 76 76 80 83 87 83 75 72 65 64 61 67 71 74 69 81 98 100 100 99 97 96 96 96 97 96 95 96 96 94 92 79 74 84
44 46 60 90 94 86 78 87 86 86 84 85 88 88 80 82 78 73 68 53 66 66 47 45 80 98 75 67 96 100 95 96 95 92 92 92 95 96 96 97 93 90 88
43 49 64 89 94 92 77 80 86 88 88 94 96 89 84 87 82 80 70 46 58 61 31 26 60 63 50 62 89 96 92 94 94 92 94 94 96 96 96 96 96 94 92
52 64 80 87 90 95 82 64 78 94 98 98 98 92 90 89 84 84 70 54 52 63 31 16 31 39 38 50 65 84 84 95 96 96 95 97 97 96 96 96 96 96 96
65 84 87 95 98 98 92 83 91 97 100 100 100 96 94 88 87 82 86 75 52 60 50 16 20 20 22 29 42 59 64 81 93 94 94 94 96 96 95 96 96 96 96
77 95 96 96 96 98 95 96 95 94 91 100 99 95 94 91 92 86 86 78 60 51 66 42 18 18 19 24 26 24 27 60 91 95 96 96 96 94 93 94 96 96 96
97 97 98 96 92 94 97 98 98 96 96 97 97 94 90 92 92 91 88 84 77 52 60 70 48 21 18 20 21 22 20 24 73 98 96 95 95 97 93 91 93 95 94
94 93 92 93 93 96 97 97 99 98 95 97 97 98 94 95 96 92 91 88 88 65 43 59 72 53 29 20 20 21 21 20 31 80 93 95 96 96 94 93 92 92 89
90 91 93 98 94 94 97 96 92 93 95 99 95 99 96 96 97 94 92 89 88 83 64 44 49 68 66 49 31 23 23 24 22 20 43 62 79 92 95 95 95 94 90
89 98 98 93 99 96 93 95 96 97 97 99 98 96 99 100 95 95 93 89 86 82 82 67 48 41 39 35 33 31 28 25 26 24 21 31 44 51 80 92 92 90 86
96 100 98 97 98 97 95 98 100 99 94 97 95 95 96 98 94 95 92 92 85 80 79 80 66 50 50 45 38 36 33 27 27 28 26 23 25 27 36 65 71 72 86
98 92 95 96 97 98 99 81 84 78 91 93 94 97 95 95 94 91 92 90 86 81 79 77 77 74 71 63 68 71 69 53 33 32 30 25 24 21 21 26 37 44 52
94 93 94 97 97 98 97 75 73 81 88 90 91 92 96 94 92 92 90 91 84 81 79 76 76 77 79 78 75 81 84 85 70 48 50 39 24 19 17 17 18 22 24
96 91 91 92 96 98 97 94 93 93 93 94 95 95 92 94 97 93 92 88 84 83 77 73 76 77 78 81 82 86 88 87 78 72 76 77 54 26 16 16 19 19 19
97 92 90 95 94 95 97 97 96 98 98 96 95 90 91 90 91 98 94 84 84 83 75 72 74 77 80 81 82 86 89 89 83 77 76 71 58 36 21 18 22 26 28
96 96 91 96 98 98 98 98 96 96 96 96 96 95 92 87 89 92 88 88 80 74 72 72 75 80 81 83 83 84 87 90 88 79 67 53 45 35 23 21 23 27 29

GFSGL_850_rhum_027.txt.gz
RH
36 43 43 42 37 32 28 28 34 40 42 38 41 61 76 86 90 92 84 68 66 61 63 67 72 79 94 98 98 93 88 84 81 72 75 75 81 86 87 86 79 83 79
45 40 38 33 30 27 30 44 50 51 43 40 52 70 85 89 89 87 73 72 66 65 69 73 81 96 99 99 97 95 94 92 92 85 78 78 88 88 92 93 91 86 80
39 36 31 32 31 40 50 54 48 42 44 48 66 87 92 94 89 80 81 73 68 71 76 79 77 92 96 94 95 94 96 97 98 93 84 81 80 80 85 90 85 89 90
33 32 33 36 44 50 55 50 38 42 50 66 85 99 88 98 93 92 87 72 76 77 72 63 50 60 95 98 100 98 98 99 98 96 88 86 84 83 95 92 84 83 78
34 35 37 43 50 54 53 39 40 51 62 68 99 99 96 95 88 78 79 79 74 69 52 39 43 52 58 81 100 100 100 100 98 96 90 84 82 77 81 80 89 99 96
38 38 40 47 54 53 42 41 54 60 74 78 88 90 93 92 78 80 76 76 65 51 38 43 56 63 99 89 76 81 92 100 100 96 89 95 78 99 86 88 90 100 92
38 41 49 54 51 46 44 55 61 66 86 92 98 93 80 79 81 78 77 64 54 39 44 56 78 100 100 100 100 100 99 94 95 96 100 98 94 87 90 100 97 97 97
39 46 49 49 46 50 55 64 65 76 90 93 89 83 79 82 81 80 64 58 46 42 51 69 100 100 100 100 98 100 100 98 98 100 97 99 98 98 97 99 97 97 95
42 45 48 51 53 60 65 70 66 78 86 88 80 81 85 84 83 71 63 52 47 45 53 92 100 100 100 100 100 100 100 100 97 99 89 88 87 88 93 100 100 98 96
38 44 49 53 57 71 80 75 64 71 78 82 82 85 84 85 77 69 63 58 50 50 75 69 48 84 100 100 100 100 100 100 100 100 100 100 100 96 96 98 100 99 90
42 46 45 46 52 80 88 79 73 78 81 80 83 86 86 83 72 70 66 64 64 75 72 40 29 60 92 57 78 100 99 95 100 100 100 100 100 100 98 96 98 100 98
45 43 43 46 52 74 87 84 74 78 86 86 88 90 92 84 75 74 71 71 50 56 66 30 19 29 37 39 55 73 83 85 94 98 100 100 100 97 97 96 96 97 94
40 40 44 55 67 87 91 90 80 72 88 92 94 96 94 85 81 78 76 73 60 51 61 33 18 23 23 33 43 60 70 74 90 94 95 97 97 97 96 97 96 96 95
38 42 58 76 80 92 95 98 87 73 85 96 98 97 93 88 86 82 82 72 68 52 56 53 24 20 20 25 31 35 35 67 94 96 96 96 96 95 96 96 96 96 99
43 56 71 85 90 92 92 98 92 90 93 97 91 96 94 90 90 88 86 79 78 67 49 61 50 28 20 20 22 20 21 47 85 92 93 94 95 93 94 95 96 97 98
55 71 80 90 87 88 92 96 93 95 98 96 84 88 91 91 91 93 87 80 82 77 52 50 63 54 33 22 21 21 20 20 55 88 91 95 96 95 92 100 96 96 97
73 83 88 86 87 86 92 99 93 94 98 97 91 91 95 93 94 94 90 87 85 81 67 47 53 64 59 43 29 23 23 23 20 47 78 89 93 95 98 100 100 100 100
82 89 89 88 87 97 97 93 94 95 99 97 87 94 93 98 97 97 96 92 88 82 80 69 50 49 58 60 54 44 35 28 26 22 25 40 58 86 94 96 100 93 97
88 90 92 93 99 94 97 99 94 95 95 92 89 93 94 95 96 98 98 94 90 85 83 78 69 55 48 44 38 35 34 31 30 29 25 25 32 38 56 87 91 90 88
94 95 97 96 95 92 97 98 98 94 92 92 90 92 94 94 95 93 97 95 89 85 82 77 74 69 58 57 53 48 45 41 32 30 29 26 27 29 31 46 66 63 83
94 99 94 91 99 98 95 96 99 100 96 93 96 90 92 97 95 94 94 93 87 86 80 76 72 71 68 69 65 67 70 67 54 38 34 30 27 24 24 28 40 44 65
94 94 93 92 90 91 98 99 99 98 77 72 72 83 93 97 96 89 89 87 86 88 82 76 71 71 70 72 72 73 78 81 78 62 50 50 36 24 20 20 23 27 31
96 97 92 91 88 90 99 98 97 96 83 73 79 87 88 88 88 89 87 86 88 87 84 76 71 69 70 72 75 75 78 82 84 75 70 74 68 46 24 18 20 20 21
91 90 90 90 90 93 99 97 97 96 96 94 92 91 93 92 90 88 84 89 89 89 83 78 71 68 70 72 75 77 78 82 84 80 75 74 69 56 37 25 23 27 27
96 96 98 92 94 96 98 97 97 98 97 96 96 96 96 96 95 90 82 87 87 94 83 81 77 69 70 74 77 79 79 81 84 83 78 70 56 48 39 29 27 29 29
92 100 100 97 96 96 100 98 97 97 97 97 97 97 97 96 96 96 95 91 91 92 83 82 77 71 74 78 79 79 78 79 83 84 81 70 56 49 40 30 27 27 29

GFSGL_850_rhum_030.txt.gz
RH
57 40 39 41 38 46 53 54 56 60 60 60 66 72 74 75 82 86 92 90 84 84 82 84 83 79 70 66 65 65 64 64 64 60 61 61 66 68 67 78 79 76 67
42 40 45 34 45 51 52 56 64 68 68 72 83 84 81 84 94 96 94 84 88 83 80 79 79 69 71 69 66 63 64 70 79 78 70 73 76 72 74 72 69 66 69
43 43 42 47 52 52 58 66 71 71 72 84 83 91 98 100 96 88 90 95 91 86 85 83 79 79 75 70 71 70 74 83 89 89 85 81 76 73 75 80 93 95 76
41 38 42 52 54 61 70 73 74 76 84 86 88 95 94 93 95 90 88 88 88 83 85 85 81 76 77 82 84 80 81 86 86 86 82 82 81 80 75 71 70 80 88
35 41 46 54 65 71 77 77 75 83 89 88 93 100 94 99 89 97 93 87 81 81 77 73 71 78 63 85 99 97 97 94 93 88 84 84 77 73 86 74 76 69 64
34 47 47 56 67 72 75 71 78 83 86 88 97 96 97 95 80 77 79 83 83 76 70 69 75 83 88 96 100 100 98 100 100 96 92 89 83 78 77 94 79 88 84
43 46 51 59 66 69 70 73 76 82 89 92 99 99 98 100 77 81 78 73 80 77 76 78 80 80 89 92 96 94 97 96 97 98 94 91 95 92 89 88 76 80 87
40 50 61 65 68 68 73 78 80 82 86 90 93 94 98 98 81 82 76 70 89 90 88 89 87 84 85 97 100 100 96 90 86 92 95 94 94 97 99 97 94 90 87
49 55 60 68 69 71 74 82 88 83 84 86 92 94 98 97 84 81 68 72 99 98 94 93 94 86 96 99 100 99 90 82 90 98 96 93 85 81 84 99 97 92 88
52 55 62 70 74 72 82 90 88 86 85 86 88 97 93 89 84 79 68 74 100 100 96 94 92 76 30 97 99 100 100 98 98 100 100 94 93 93 93 96 100 96 88
32 43 69 71 74 77 86 88 87 85 91 98 80 85 94 88 93 80 69 67 94 97 98 95 94 41 20 27 35 99 94 96 100 100 100 100 96 95 97 98 98 96 99
31 62 66 71 77 83 89 88 87 90 95 100 98 87 100 99 91 83 72 69 67 72 94 100 77 28 19 20 34 43 43 77 100 100 99 100 100 100 100 97 95 95 97
34 46 61 81 89 90 88 87 90 90 92 96 94 96 97 96 99 100 80 74 68 65 68 50 54 42 23 40 49 22 48 100 100 100 100 100 100 100 100 95 96 96 94
39 54 82 91 91 91 87 99 100 97 97 97 94 95 97 96 98 100 100 100 100 98 100 66 53 60 57 55 86 90 83 43 98 100 100 100 100 100 100 97 97 96 97
46 60 85 96 94 89 91 100 100 100 99 99 98 98 100 99 99 99 93 98 100 93 74 70 100 100 96 85 86 89 92 62 75 100 100 100 100 100 100 99 100 99 97
49 65 94 98 96 98 99 100 98 95 92 92 93 89 82 82 89 86 86 88 81 75 77 100 100 100 100 98 94 91 89 84 38 31 99 100 100 100 100 100 100 100 100
52 60 93 94 97 100 100 100 100 98 94 95 94 97 90 82 88 90 89 90 87 80 96 100 100 100 100 100 94 91 89 71 44 50 47 100 100 100 100 100 100 100 100
57 64 88 100 100 98 97 99 96 96 97 100 98 98 95 82 84 91 94 95 100 100 98 100 100 100 100 99 94 88 61 43 46 35 48 48 80 100 100 100 100 100 100
65 90 100 99 99 100 96 98 96 98 100 100 100 99 98 93 90 91 95 98 100 100 100 100 100 100 100 100 100 85 58 61 53 40 45 55 85 79 99 100 100 100 98
94 100 100 100 100 100 99 93 94 99 100 100 98 100 99 96 97 100 100 100 100 100 100 100 100 100 100 100 100 90 91 99 96 62 46 44 82 97 99 97 100 100 96
100 99 100 100 100 100 98 97 97 94 95 100 100 100 100 100 99 98 96 95 100 100 100 100 100 100 100 100 97 91 97 90 92 74 62 54 52 83 95 98 89 98 94
98 100 100 98 95 98 91 93 92 97 100 100 100 100 98 84 93 100 99 99 100 100 100 100 100 100 100 96 96 93 94 80 89 88 72 68 73 100 94 97 92 72 84
97 98 99 97 95 92 96 98 92 94 97 100 100 100 100 98 93 96 99 97 96 96 100 84 83 79 75 66 65 69 74 83 85 79 76 71 73 90 67 97 99 90 48
98 97 97 100 99 94 92 92 91 95 100 99 100 100 96 95 96 95 92 94 97 88 84 87 84 78 72 70 64 67 70 71 72 75 78 74 70 63 55 46 98 72 75
97 87 100 100 96 95 92 91 91 94 96 99 100 100 98 96 96 95 96 97 96 96 82 86 88 87 81 78 70 70 74 74 72 74 78 77 69 58 50 40 36 85 59
96 100 100 94 94 95 95 94 92 92 92 93 94 96 97 99 100 99 98 97 96 96 96 93 88 90 84 84 76 74 77 76 71 73 78 79 73 64 56 47 38 47 87

GFSGL_850_rhum_033.txt.gz
RH
56 65 62 60 50 51 51 52 52 58 59 57 58 64 68 65 64 80 83 92 88 86 84 89 94 90 87 80 62 57 55 52 54 55 53 62 75 75 75 75 71 75 68
60 60 66 51 45 47 49 50 55 62 62 59 64 69 67 74 86 83 89 86 90 89 92 93 86 76 68 62 60 58 57 58 58 60 65 77 81 80 79 75 73 69 82
63 57 46 44 46 49 47 54 60 64 61 64 69 69 73 78 82 91 88 91 90 92 88 86 70 66 68 66 68 70 68 64 67 82 84 85 82 75 72 75 72 72 75
50 50 39 41 50 48 52 60 64 65 66 70 71 71 78 79 81 88 89 86 91 84 73 68 69 70 69 83 81 82 77 79 83 90 88 80 82 82 88 79 82 80 75
63 44 38 46 51 53 60 66 67 68 72 74 70 78 87 91 82 82 86 83 71 64 66 67 64 66 69 76 90 91 94 94 94 90 88 91 91 86 80 76 74 74 77
56 42 46 47 48 54 62 68 64 65 68 71 72 79 81 82 83 71 73 77 80 66 67 67 69 69 71 79 92 100 96 99 99 96 91 92 84 82 92 96 93 89 77
42 44 46 46 54 58 58 58 60 66 72 72 76 84 93 93 86 80 77 77 79 74 77 78 75 68 78 81 90 91 95 90 88 98 96 96 96 92 92 94 88 95 92
45 45 43 52 56 57 57 59 64 69 72 73 79 87 96 92 87 74 82 74 82 83 85 83 78 80 80 78 58 99 91 82 75 81 90 93 93 91 92 91 93 87 80
46 42 44 49 54 57 58 60 66 74 74 75 76 90 91 93 96 77 82 75 92 91 91 83 87 88 86 46 24 89 95 87 79 81 83 90 82 85 88 97 82 93 87
42 45 48 50 56 59 61 65 72 77 73 73 75 81 86 95 92 88 81 78 91 98 92 87 88 90 79 28 21 42 98 95 90 93 99 97 96 98 97 97 96 96 96
43 50 55 57 60 60 65 72 78 74 77 87 86 92 93 96 93 96 91 83 85 97 98 93 91 92 54 30 20 33 80 34 60 99 100 99 96 96 100 99 99 96 92
23 62 60 57 58 64 76 80 78 78 81 91 97 87 86 94 96 90 84 83 72 70 96 100 99 53 51 39 36 40 32 62 99 94 100 100 96 99 100 98 95 95 97
55 52 64 65 72 78 78 75 75 79 84 94 99 94 97 96 99 99 91 90 83 68 85 84 56 48 53 62 86 77 74 97 97 98 98 98 97 99 97 92 94 96 97
46 69 70 76 80 81 82 78 75 88 98 99 98 99 98 98 96 98 96 90 97 97 98 99 69 85 89 94 90 93 96 97 94 96 99 100 95 100 96 93 91 93 92
67 64 70 80 88 84 80 76 82 94 98 96 96 96 94 90 97 93 96 97 98 100 86 69 100 98 98 96 94 95 96 95 93 91 98 98 93 97 97 93 93 94 98
40 48 60 78 95 91 89 89 93 93 87 91 92 92 92 91 86 80 86 86 84 84 79 100 99 98 100 100 96 94 96 97 98 97 99 99 98 96 95 100 99 98 100
44 49 60 95 93 93 96 100 99 93 92 92 88 88 93 91 97 91 85 88 90 93 89 100 100 100 100 99 93 93 94 98 86 100 100 100 100 100 96 93 98 99 98
52 65 91 95 96 100 100 99 93 89 90 91 94 93 92 95 96 95 96 94 100 100 100 100 100 99 100 97 93 95 100 100 100 100 100 100 100 100 100 95 94 95 94
79 96 95 98 97 97 92 93 93 90 89 90 93 91 92 96 95 96 98 95 99 98 96 93 97 98 96 96 98 100 100 100 100 100 100 100 100 100 100 100 100 94 92
82 86 98 98 100 100 98 92 89 91 94 92 91 93 96 97 100 95 97 95 95 93 96 97 98 96 98 99 100 100 100 100 99 98 100 100 100 100 100 100 100 100 94
86 86 93 94 95 99 95 95 95 93 93 90 90 92 97 94 94 95 91 92 91 90 91 98 96 97 98 100 100 100 100 100 100 100 100 100 100 100 99 100 100 99 97
90 98 100 95 94 95 93 96 96 87 86 92 90 92 96 98 100 100 96 96 95 91 92 93 93 97 100 100 100 100 100 100 100 100 100 94 95 100 98 100 100 100 99
100 100 100 98 98 97 92 95 97 94 92 89 90 94 96 97 98 96 96 100 98 96 95 92 94 97 100 100 100 85 93 100 100 93 78 74 87 100 100 100 100 100 100
92 93 100 100 100 94 88 91 95 96 96 89 88 92 95 96 98 97 97 100 98 96 96 96 93 89 84 99 98 77 68 70 70 67 63 69 72 94 99 99 99 100 100
94 99 98 96 94 88 86 89 95 95 95 95 92 94 95 95 96 97 98 98 97 97 96 96 96 96 94 87 93 84 74 64 70 71 66 66 71 70 62 61 68 63 100
98 100 99 96 93 89 91 96 96 97 96 95 95 95 87 81 89 92 93 94 95 97 98 98 97 96 96 96 96 96 94 75 75 76 70 68 72 76 96 100 86 59 100

GFSGL_850_rhum_036.txt.gz
RH
62 60 59 67 59 63 52 55 54 54 58 62 60 59 64 67 68 71 77 80 89 90 92 94 92 90 84 85 82 70 66 64 66 66 63 63 68 71 58 66 67 62 62
55 60 66 60 62 51 50 53 51 56 63 65 61 63 69 69 72 76 71 89 90 92 79 86 83 79 81 71 68 65 66 65 68 73 76 78 82 70 74 78 79 74 73
56 62 60 59 54 51 51 48 51 60 64 64 64 69 70 73 72 78 81 87 87 90 84 83 82 74 68 68 69 71 69 70 81 84 83 76 75 70 69 77 72 73 76
56 59 52 55 57 49 54 51 56 64 67 64 70 72 71 77 71 81 85 95 92 84 75 68 69 65 68 67 68 65 70 80 78 81 79 78 84 83 86 71 86 79 81
61 51 61 52 50 54 52 57 64 67 66 65 71 70 72 77 81 86 85 71 77 71 59 66 67 65 67 69 71 77 91 89 91 83 80 79 77 72 82 94 86 95 74
57 60 78 50 48 50 53 61 64 65 61 66 70 71 75 81 77 82 79 74 66 66 70 72 74 74 68 70 83 88 92 94 84 90 89 90 92 97 96 87 90 80 89
62 58 45 53 62 52 58 59 60 60 62 69 72 74 80 85 81 90 82 71 66 65 80 81 82 79 77 81 79 72 40 58 95 88 90 98 97 99 77 76 75 84 79
50 54 60 49 49 54 55 61 59 60 64 71 73 73 83 87 83 90 88 77 67 65 86 88 88 83 84 75 69 47 22 34 78 84 87 88 90 76 76 92 92 91 74
62 71 56 47 48 48 56 61 61 62 67 73 73 74 80 97 95 94 95 87 80 68 74 81 90 88 85 84 79 38 23 24 67 85 62 65 80 87 94 98 90 95 84
67 56 60 56 45 53 61 61 62 66 73 75 75 78 78 89 92 97 94 83 74 77 80 93 86 89 91 85 65 36 28 30 24 42 72 85 85 94 97 98 96 94 96
73 58 64 51 58 62 57 58 66 68 73 76 79 82 78 78 84 95 90 80 80 84 68 66 93 94 87 63 50 44 43 47 56 74 88 86 92 90 90 90 94 100 96
80 50 47 40 59 67 68 71 69 75 80 80 85 92 90 86 91 83 77 78 85 80 71 65 74 75 61 52 57 60 75 74 82 79 85 86 89 90 92 93 92 92 98
60 45 28 60 82 79 77 79 78 74 75 79 79 92 94 94 95 96 94 98 92 84 78 68 64 65 68 76 80 88 94 88 95 79 82 83 87 90 93 93 89 88 87
35 31 75 80 70 65 72 80 80 79 81 91 78 91 95 100 94 92 89 88 97 91 84 81 78 74 91 95 97 96 95 90 95 95 93 74 83 90 88 93 95 90 88
77 56 42 43 46 57 65 79 84 82 84 87 84 90 98 98 98 97 96 83 94 99 93 91 86 78 100 89 88 92 89 87 93 95 77 94 94 88 83 88 96 91 90
39 39 41 46 52 61 77 91 89 85 92 92 90 85 85 89 92 96 97 95 88 100 98 87 84 86 95 91 86 90 93 89 94 87 90 94 98 95 84 88 94 94 91
46 46 50 56 70 82 94 96 98 76 84 90 94 98 96 95 95 96 98 99 94 92 92 87 86 91 91 91 87 92 93 95 89 94 98 93 98 97 95 88 85 97 82
66 57 61 70 81 92 91 96 100 87 80 76 80 84 93 97 97 96 99 100 97 98 98 97 98 94 90 91 88 99 97 89 90 94 85 97 100 97 96 100 84 92 90
73 84 83 84 94 98 97 90 94 93 91 88 85 86 88 88 95 97 99 99 96 96 92 92 89 90 93 98 88 88 91 98 91 88 93 98 99 100 96 97 96 85 89
87 86 87 89 92 98 98 100 98 98 98 98 87 89 91 93 97 90 91 94 94 94 91 91 99 91 97 98 100 93 99 100 97 97 97 94 96 89 93 98 96 97 92
89 86 82 91 94 98 100 100 100 99 100 100 94 83 88 96 97 97 94 93 90 93 92 92 88 89 90 91 94 96 100 100 100 98 91 86 82 74 95 98 97 99 95
88 94 96 84 82 85 96 93 96 92 95 100 96 92 93 95 96 96 97 96 92 93 94 94 94 92 94 93 94 96 98 100 98 91 79 70 63 69 92 96 95 97 99
92 98 96 98 90 80 87 96 92 85 89 92 97 96 96 92 95 96 96 96 96 95 95 97 96 94 89 91 94 95 99 99 92 89 79 68 61 64 81 78 89 95 96
86 75 87 91 96 96 97 96 94 88 93 92 96 97 97 95 96 96 97 96 96 96 97 96 96 96 96 95 95 94 90 98 98 82 76 68 61 63 65 66 60 76 87
80 83 80 92 94 97 100 96 96 99 99 96 96 96 97 97 93 83 90 96 96 97 97 97 97 96 97 97 96 96 94 95 93 76 70 71 63 62 65 65 61 59 65
98 96 97 98 99 98 97 96 95 97 97 97 96 96 95 95 95 97 96 87 87 91 95 97 97 97 97 97 97 97 96 96 96 92 78 76 69 63 66 67 76 69 63

GFSGL_850_rhum_039.txt.gz
RH
69 75 70 64 60 54 61 55 57 64 60 46 47 47 43 52 69 70 69 65 60 88 90 91 85 84 87 86 84 76 71 68 68 66 64 58 54 62 66 63 67 68 69
70 71 63 61 64 59 65 61 80 63 52 51 58 56 55 67 70 70 72 64 74 83 86 80 77 86 84 80 74 68 60 65 68 58 45 51 58 67 66 64 68 72 65
65 62 59 62 64 62 58 78 59 53 52 59 62 61 60 70 71 72 72 79 77 85 88 79 76 75 73 69 63 68 67 63 53 66 66 59 65 66 67 65 70 68 80
57 56 61 61 60 55 71 67 76 54 59 61 61 60 64 73 72 73 65 69 75 82 83 78 68 66 67 66 66 66 66 64 70 76 61 70 74 69 82 88 90 79 66
52 58 58 55 58 66 65 76 60 51 64 65 61 63 69 71 75 75 71 79 80 72 65 59 56 69 70 70 69 69 72 81 83 75 64 89 82 84 97 99 88 68 57
52 56 57 55 66 73 66 65 64 64 55 60 59 64 68 72 77 80 78 82 84 80 56 55 70 72 73 74 74 79 85 78 52 32 90 94 92 98 91 84 79 68 85
57 59 59 64 63 66 83 68 59 55 48 60 64 70 75 73 76 86 82 86 87 77 62 55 76 85 81 80 80 81 63 51 26 36 84 97 100 94 90 78 76 94 91
61 54 58 66 77 66 62 61 73 62 68 70 72 74 71 73 78 86 96 93 90 88 78 65 76 84 82 84 80 70 62 43 27 36 90 88 83 80 93 98 98 98 91
55 62 78 68 73 74 73 68 63 69 69 67 69 73 74 73 77 81 97 98 97 93 83 71 63 81 85 81 78 71 47 43 36 30 47 76 83 89 97 98 98 97 84
72 88 94 91 85 66 46 44 61 66 68 68 69 76 77 77 81 86 74 86 93 93 83 73 69 73 72 76 73 54 48 48 48 47 43 59 83 88 89 93 96 99 96
93 93 90 82 59 34 48 67 62 63 65 65 68 79 86 86 89 89 86 82 90 90 81 68 72 64 66 68 65 53 58 61 65 72 70 65 70 81 86 88 93 98 98
89 81 72 49 51 63 65 72 73 75 76 79 79 80 82 84 87 88 93 86 90 91 88 80 75 71 67 64 63 66 74 80 84 82 90 79 70 72 80 88 88 90 94
78 65 53 47 32 43 57 61 70 74 78 77 81 84 86 84 87 97 96 91 97 96 89 89 80 68 66 61 73 86 89 93 89 89 94 87 82 77 78 77 84 90 82
57 52 34 40 44 41 45 47 60 77 86 85 85 87 89 86 84 99 97 98 95 92 77 88 88 82 81 73 84 88 96 95 89 95 90 91 74 83 76 81 95 88 86
40 36 42 42 40 42 46 56 69 82 91 91 91 95 94 91 82 91 97 98 97 97 95 87 89 94 92 79 88 92 86 94 95 87 91 84 74 82 77 80 87 93 88
58 53 44 43 44 49 55 63 74 83 78 75 75 84 87 92 97 97 96 95 98 98 98 97 99 99 88 80 91 96 85 99 97 89 88 77 81 86 87 85 81 85 84
69 67 68 67 63 65 71 82 86 70 85 80 78 78 77 81 94 98 98 97 98 98 96 94 92 88 85 83 95 96 85 99 94 88 78 74 79 84 92 92 92 82 80
60 77 91 90 87 87 88 92 94 96 93 77 78 83 83 80 84 93 93 98 97 98 96 95 91 85 85 87 91 93 87 90 94 92 72 70 77 89 85 92 93 91 83
90 87 87 96 99 97 98 98 97 90 98 96 73 86 81 89 86 87 94 97 97 92 88 84 86 85 86 87 86 97 100 91 87 83 69 73 74 86 78 90 93 94 91
87 82 94 92 80 78 82 90 97 95 94 96 95 91 83 99 93 94 94 94 97 95 92 85 86 84 86 92 92 99 100 97 94 88 72 74 79 70 78 89 92 94 94
54 71 79 82 93 95 96 99 96 82 89 98 99 87 84 98 96 94 94 92 94 96 95 88 90 93 88 89 93 94 98 98 97 82 66 78 81 64 71 83 93 95 94
91 89 76 64 61 65 78 94 99 97 100 96 86 84 83 90 98 96 96 93 90 97 96 95 91 96 96 93 94 93 93 94 94 91 75 81 74 62 65 67 83 92 88
47 59 89 93 94 91 75 84 94 98 100 96 90 94 90 87 98 94 97 97 96 97 97 95 91 90 94 94 95 96 97 92 89 88 81 73 71 66 63 63 68 73 74
89 100 98 93 98 100 97 97 96 86 97 98 97 95 94 92 97 97 95 94 93 94 96 97 96 96 96 96 96 96 96 94 97 97 90 88 71 73 63 62 65 59 61
83 93 98 96 96 94 94 96 96 96 97 98 95 95 96 96 94 95 95 95 97 92 92 95 96 96 96 96 97 97 97 97 97 97 95 92 74 72 61 61 65 64 59
82 86 86 86 88 92 96 97 97 96 96 95 98 97 98 95 95 95 94 94 96 96 97 96 96 96 95 95 96 96 96 99 97 96 96 96 80 76 65 62 65 67 66

GFSGL_850_rhum_042.txt.gz
RH
77 72 74 79 80 75 65 59 62 60 61 81 71 55 52 49 38 39 48 62 71 66 69 91 91 83 81 85 85 82 77 72 66 62 59 48 38 39 38 44 58 63 65
65 68 70 72 75 70 62 61 63 78 78 64 60 56 56 60 45 42 64 72 73 63 72 74 81 78 76 72 74 72 66 67 68 63 52 44 40 36 53 56 60 62 65
64 67 71 70 66 64 64 68 68 72 66 60 57 61 62 61 48 64 71 74 75 59 71 75 76 76 72 68 67 67 68 68 62 64 60 52 37 46 63 62 68 70 68
68 70 71 66 64 62 63 62 67 74 72 62 65 64 62 50 62 68 73 78 77 70 75 78 77 78 59 61 69 71 70 70 71 70 64 44 30 46 74 81 78 73 58
70 70 66 65 62 61 61 68 70 68 72 67 61 57 53 60 65 71 72 78 81 79 82 80 76 49 47 68 73 71 75 75 78 64 52 29 36 70 91 91 89 77 58
67 68 67 61 61 63 67 75 82 90 85 72 62 55 55 63 68 74 78 80 89 95 91 87 72 54 48 62 77 80 81 85 73 62 35 29 55 92 89 94 86 82 91
65 64 61 61 64 71 88 100 99 92 82 75 50 62 65 72 74 75 75 84 91 95 96 90 82 76 59 70 83 85 85 75 70 47 32 35 54 71 73 85 92 93 97
60 60 61 63 74 95 96 93 91 90 71 46 68 68 70 70 73 75 73 88 92 88 97 96 96 74 65 73 80 85 69 64 51 44 40 39 61 83 96 98 98 98 92
61 64 71 80 94 95 98 91 76 56 60 65 67 67 69 70 74 77 79 90 97 93 95 97 92 76 73 73 82 70 57 48 48 51 53 54 59 82 94 97 93 94 83
66 70 84 96 97 92 84 61 61 62 63 68 66 68 66 67 77 82 88 92 94 92 88 96 87 70 74 76 68 63 50 48 54 58 60 63 56 55 67 89 97 100 100
87 91 99 88 74 64 56 47 50 60 61 64 69 68 72 77 83 88 94 88 94 98 97 93 86 84 76 69 70 51 51 60 66 69 69 74 73 76 65 72 84 93 98
99 88 75 68 58 50 38 45 45 47 57 62 66 73 75 79 86 93 96 96 98 99 92 88 95 95 81 68 60 56 67 78 80 87 82 77 81 80 70 71 64 83 99
70 60 55 48 36 31 33 35 37 42 46 50 64 70 71 84 89 92 90 96 100 96 85 92 97 96 89 70 74 67 74 79 84 88 84 82 88 83 71 72 69 89 82
41 36 31 31 30 31 34 37 42 46 51 57 62 69 75 78 83 88 92 92 87 98 94 97 97 96 93 84 86 82 81 86 87 90 92 93 94 85 69 80 79 72 73
44 48 47 51 47 50 54 54 51 52 65 67 68 74 72 67 61 75 94 96 90 84 96 97 97 96 91 89 92 89 82 92 89 87 100 97 96 76 70 78 84 72 75
61 61 61 64 71 76 79 74 72 77 78 79 78 86 86 80 74 74 82 90 96 97 97 94 95 96 94 91 93 87 84 92 92 87 100 98 98 72 72 75 86 81 71
57 64 70 79 89 95 96 96 96 79 89 92 97 98 97 94 88 84 79 84 90 98 97 94 93 93 95 97 94 84 83 88 94 87 97 100 93 67 75 78 86 83 67
78 78 76 76 77 81 95 93 88 87 86 78 73 98 98 94 97 93 84 96 98 93 100 96 92 93 96 98 87 84 88 89 96 90 96 97 80 67 68 76 86 90 86
45 31 25 30 41 55 61 59 95 100 100 100 98 78 78 94 96 87 88 94 95 96 94 96 96 95 91 91 86 86 88 90 95 99 97 97 75 71 69 76 83 89 91
17 32 49 58 51 45 45 55 53 58 89 99 99 88 88 93 83 73 76 97 94 95 96 95 96 96 89 90 84 86 90 94 95 100 100 100 85 68 70 73 75 84 87
30 34 38 49 75 100 87 96 100 100 97 91 95 97 98 94 91 84 79 85 98 95 96 96 96 96 89 92 91 85 90 96 93 99 100 98 87 65 74 66 71 78 82
36 46 60 86 98 89 97 99 100 100 98 97 85 97 96 96 87 86 89 90 98 94 96 97 96 97 95 95 96 95 90 89 92 94 96 98 87 68 73 63 70 68 70
46 54 60 75 84 87 85 88 95 97 99 99 98 97 100 100 91 89 95 98 98 95 94 96 96 96 96 96 95 97 95 89 86 92 97 99 90 73 75 66 65 66 64
57 59 68 73 74 78 85 93 94 94 95 96 96 96 97 97 100 99 96 95 96 93 99 95 94 96 97 96 96 96 96 96 96 94 98 100 98 94 79 71 63 66 61
59 63 71 76 78 82 86 88 90 90 94 96 95 96 96 96 96 98 95 89 87 94 95 92 96 96 98 97 97 96 96 97 97 97 97 96 96 98 83 72 64 67 65
60 66 74 80 81 83 88 90 92 92 93 95 96 96 97 97 96 96 99 95 95 93 94 94 96 96 96 94 94 94 96 96 97 97 97 96 96 96 88 74 65 64 69

GFSGL_850_rhum_045.txt.gz
RH
80 77 74 76 88 80 80 78 78 77 77 76 76 85 58 56 60 57 42 46 52 65 71 65 59 70 78 75 75 78 79 75 70 61 58 58 47 42 39 29 44 48 50
76 73 63 81 78 80 76 76 72 67 64 73 78 57 58 63 64 47 44 51 59 72 76 70 61 70 71 72 73 70 69 68 68 68 60 52 41 39 33 30 37 51 58
63 62 82 82 82 80 77 71 68 62 79 70 66 62 66 64 48 49 50 60 69 71 74 76 68 73 74 77 74 60 66 72 72 68 65 54 43 39 30 28 45 52 47
68 80 82 83 79 77 72 69 70 73 73 84 71 91 84 73 59 51 57 65 64 75 80 85 83 82 76 67 47 61 73 72 72 73 67 58 48 35 31 50 40 48 40
78 79 81 75 72 73 71 73 70 70 71 75 92 91 90 84 53 60 67 72 77 79 83 92 97 93 86 71 56 60 73 74 75 77 70 62 43 34 41 53 52 52 66
78 81 79 73 71 68 67 70 73 76 89 92 96 96 87 63 69 68 73 75 76 78 87 93 89 89 88 82 73 64 79 78 79 82 75 52 40 41 42 52 76 88 98
85 82 76 74 68 69 72 80 91 95 100 100 97 78 63 68 64 68 72 75 77 78 91 96 94 96 95 95 73 74 80 78 82 81 64 46 44 45 53 58 82 97 97
83 77 75 70 70 79 91 98 99 99 95 89 70 58 57 63 66 70 73 78 78 83 97 97 96 97 98 90 80 81 76 78 77 70 50 49 52 47 58 80 99 96 90
74 72 72 76 89 89 97 98 90 64 56 50 54 52 59 61 62 61 71 80 84 91 91 94 95 99 91 83 74 83 80 69 69 51 54 59 65 61 62 62 67 88 85
72 78 89 94 99 98 79 55 51 52 45 42 42 48 48 43 52 64 75 85 89 90 94 96 98 95 96 81 75 76 71 70 58 57 63 67 71 72 71 72 76 88 91
75 91 99 96 76 58 54 52 41 33 39 43 44 39 36 42 50 64 74 85 95 96 95 97 97 97 98 89 85 73 69 67 61 68 71 68 71 74 74 74 75 78 78
97 89 75 59 54 50 40 32 34 38 39 37 36 35 39 44 55 58 69 88 92 96 93 97 98 99 97 94 89 76 69 69 70 76 76 74 80 78 80 77 71 71 89
58 52 46 39 35 34 34 34 37 40 40 42 45 47 45 48 57 65 76 90 95 98 99 99 100 98 100 98 91 82 76 83 79 85 80 79 84 82 82 76 67 68 64
40 42 45 45 45 48 55 62 68 68 68 67 64 60 60 66 70 68 74 74 87 99 97 91 88 98 97 98 94 95 91 95 85 87 84 80 81 88 90 76 66 70 61
48 49 51 54 53 49 49 60 69 70 87 94 94 98 94 85 80 88 86 74 71 82 99 98 93 95 96 96 95 96 97 99 88 89 89 83 84 94 93 70 68 70 73
40 41 44 48 51 57 58 48 49 47 44 52 77 84 90 94 96 99 99 96 89 83 96 99 97 95 93 88 96 96 97 98 88 91 92 87 90 99 91 64 69 75 76
41 39 32 22 15 15 18 26 27 11 22 25 74 79 78 84 82 98 98 95 98 96 97 99 86 88 97 96 96 96 97 98 93 97 93 86 94 98 87 67 64 69 71
19 13 10 11 14 18 22 27 32 44 50 28 24 59 75 85 91 90 95 94 97 96 93 99 93 84 87 96 96 96 98 90 88 99 91 94 98 98 79 70 62 67 73
10 10 11 13 16 23 33 44 55 82 100 100 85 67 76 77 96 94 95 94 95 97 97 92 89 96 94 94 97 96 97 89 90 96 90 100 100 100 92 76 58 67 75
11 13 14 18 24 35 54 71 90 98 97 100 99 90 95 98 93 98 84 82 81 83 97 94 94 97 96 96 96 96 95 89 91 91 90 96 100 100 92 82 60 62 69
14 16 22 30 42 54 63 76 91 100 96 94 98 100 99 96 97 95 92 85 100 98 94 97 96 96 96 96 96 97 94 85 88 89 94 96 100 99 98 82 59 61 63
22 27 34 42 49 55 61 71 80 88 91 94 91 92 98 99 96 98 100 100 97 96 97 98 99 98 96 97 96 96 96 94 86 87 94 95 98 100 100 84 64 59 62
32 35 40 45 51 57 60 65 72 78 83 85 89 93 93 95 96 96 96 98 97 96 99 97 99 98 96 97 97 96 96 94 90 86 88 94 99 100 100 85 73 59 60
38 43 46 52 58 62 68 70 74 78 81 84 86 89 95 96 95 96 95 96 96 91 93 96 98 100 96 96 96 96 96 96 96 95 93 95 98 100 100 96 81 69 61
47 50 53 58 63 67 69 71 76 79 82 84 88 91 94 95 96 96 96 96 96 97 94 92 99 100 100 94 96 97 97 97 96 96 96 96 95 96 97 99 93 76 62
53 56 60 62 65 68 71 74 76 80 82 85 88 92 95 93 95 96 96 96 96 96 98 98 98 97 98 96 96 97 96 96 96 96 96 96 97 96 96 96 92 81 64

GFSGL_850_rhum_048.txt.gz
RH
73 79 82 76 70 61 65 68 75 77 88 97 91 95 90 77 59 66 56 66 56 55 60 71 75 66 62 64 68 70 71 72 71 67 62 67 64 56 44 38 33 29 29
79 72 66 70 70 72 67 86 94 95 95 92 91 83 70 71 91 69 88 56 54 61 72 78 78 77 68 70 70 74 75 70 66 66 68 62 60 48 42 37 33 31 42
61 63 65 67 68 76 89 92 92 87 83 87 80 81 89 83 90 91 60 61 65 69 67 72 78 83 82 80 79 77 57 51 67 72 62 65 57 44 39 36 34 35 36
62 67 76 84 90 88 90 83 80 76 77 84 96 79 84 96 99 88 76 67 68 70 75 78 81 85 84 89 88 81 61 60 68 71 70 64 54 42 40 38 36 37 43
68 82 99 95 92 92 78 78 71 73 92 80 72 92 100 98 94 68 67 65 70 75 75 77 81 88 92 96 93 85 82 74 74 78 73 68 48 42 42 43 44 43 46
90 97 98 95 88 78 75 75 84 84 94 86 97 100 100 84 64 68 67 63 71 74 76 78 82 91 96 97 96 90 97 76 80 82 80 68 50 44 47 48 50 66 95
94 94 92 80 76 78 80 87 96 98 96 100 100 96 72 66 62 61 60 62 65 72 78 78 85 90 97 97 96 99 88 81 85 84 82 63 51 48 55 54 58 71 92
93 92 83 79 77 82 93 98 100 100 100 93 67 59 58 50 55 54 53 60 62 70 80 81 86 94 99 94 99 94 84 81 86 92 79 59 49 56 63 66 68 70 60
91 84 80 81 87 95 99 98 100 86 54 52 49 47 46 39 41 47 51 57 61 67 80 88 92 97 100 99 97 93 78 74 89 86 75 51 56 63 75 78 71 70 64
80 81 82 88 93 98 94 56 55 52 46 41 38 35 35 36 45 47 53 64 68 66 83 94 98 96 98 99 96 94 85 76 82 78 58 57 67 73 77 76 77 75 80
79 85 91 98 94 68 55 50 42 35 33 33 34 34 37 42 43 47 52 65 66 71 80 88 88 92 99 98 97 95 90 84 74 71 59 66 72 74 72 70 74 74 75
95 92 78 58 48 40 36 35 37 37 38 42 50 45 45 46 49 50 58 70 72 83 86 86 90 98 94 98 98 92 99 90 74 66 71 73 78 80 78 77 73 66 67
49 42 37 38 41 47 47 47 48 52 60 66 73 72 63 63 69 72 73 79 83 85 75 75 84 100 100 96 98 97 98 95 79 79 81 79 82 90 86 88 73 64 60
39 40 40 41 39 41 41 43 46 49 50 50 49 47 49 45 52 71 85 88 98 97 90 83 79 90 98 98 95 99 96 96 93 87 91 87 90 87 89 96 79 57 55
36 36 35 35 32 24 15 10 8 8 12 15 17 23 53 45 38 94 96 93 93 97 98 96 85 81 99 98 98 98 96 96 96 88 96 92 94 89 90 97 79 56 59
33 27 19 11 8 7 7 6 8 9 10 14 22 43 43 66 52 78 91 98 100 99 98 96 88 84 81 92 97 96 95 96 96 95 97 93 93 90 94 96 76 59 58
16 11 7 7 7 8 9 10 9 8 10 13 28 54 73 85 88 78 88 97 90 98 98 97 95 80 80 88 92 96 96 96 97 96 97 95 93 92 95 95 70 57 56
8 7 8 9 10 12 13 16 22 28 30 20 26 66 78 78 81 95 89 96 97 86 96 97 98 94 100 93 94 97 96 96 96 96 94 87 94 93 95 94 79 60 55
8 9 10 12 13 16 20 23 30 39 57 61 58 60 72 72 78 80 82 94 99 97 95 95 91 91 96 94 94 96 97 96 96 98 82 88 94 94 92 97 84 68 54
11 12 14 17 21 24 28 33 39 46 60 68 70 74 79 81 81 94 97 95 96 100 100 100 100 100 96 97 97 96 96 96 96 95 82 90 94 93 92 99 85 72 55
14 17 20 24 27 31 38 44 52 58 62 66 69 71 78 90 92 94 94 95 96 97 97 100 98 96 97 98 98 96 96 96 96 94 85 85 91 92 90 100 90 72 54
19 23 26 30 35 40 45 53 58 63 66 69 67 67 72 78 87 91 94 94 96 96 97 96 96 98 96 98 96 96 96 97 96 94 86 87 90 96 98 99 93 77 57
24 28 33 37 41 45 50 55 59 63 66 69 72 73 75 80 85 89 93 94 95 96 96 96 98 96 96 96 96 96 96 96 96 96 92 88 94 96 98 98 94 80 64
32 36 38 43 46 49 53 56 61 63 65 67 70 74 80 84 85 86 88 91 94 95 96 96 96 97 94 95 97 97 96 97 96 96 97 93 90 96 97 100 98 84 79
39 42 45 48 50 53 57 60 62 64 66 67 70 73 76 78 80 83 86 88 90 95 96 96 96 98 99 99 99 98 95 96 97 96 96 96 92 92 93 95 98 95 86
47 50 52 55 57 59 61 60 56 56 58 60 62 66 68 70 72 73 74 81 88 88 94 96 96 96 99 97 96 96 96 95 96 96 96 96 96 96 96 95 96 95 89

GFSGL_850_rhum_051.txt.gz
RH
54 53 64 74 81 87 86 93 99 100 100 98 96 94 99 98 97 64 74 90 90 55 53 62 66 71 73 72 66 68 87 90 90 72 75 74 59 58 66 51 33 32 32
54 59 70 72 65 72 80 72 81 99 100 100 97 99 100 90 71 81 98 86 57 57 62 68 66 76 78 80 78 74 76 86 83 70 66 73 76 63 53 40 34 32 34
62 67 64 65 69 73 74 94 100 99 100 99 100 98 92 82 96 91 92 75 74 66 68 70 72 78 81 81 82 84 86 82 74 72 72 76 82 80 71 66 50 40 43
67 72 77 89 98 100 100 95 100 100 100 96 95 88 97 99 96 99 96 81 70 67 68 71 73 74 78 82 87 85 91 91 84 80 81 76 82 83 76 68 65 65 66
95 98 99 99 99 100 97 94 89 83 87 88 94 100 98 98 100 99 91 68 67 66 66 73 75 77 77 83 88 89 96 97 84 90 85 81 80 78 72 64 74 74 68
94 100 99 99 95 94 90 87 83 81 88 94 98 99 99 99 98 73 66 68 69 69 67 63 65 74 78 82 89 95 99 94 91 100 87 85 81 85 80 78 84 87 81
97 99 100 99 94 87 83 80 85 94 99 99 100 100 99 83 66 62 59 64 67 67 60 63 67 76 79 83 86 98 97 89 99 92 98 92 96 94 73 82 89 90 89
98 95 89 85 83 85 98 99 100 99 99 100 78 64 59 51 54 54 56 60 60 51 49 55 62 74 81 84 96 97 96 95 90 77 80 85 93 76 55 80 100 100 97
91 87 85 87 86 88 96 97 98 88 53 54 52 48 48 44 42 44 49 51 51 48 53 58 67 80 85 89 97 95 96 97 86 77 79 85 80 62 55 89 100 97 96
87 86 87 87 88 88 98 86 58 52 46 40 35 34 36 37 37 38 42 49 52 50 51 59 65 72 84 92 97 94 98 94 94 89 79 76 74 59 62 70 100 100 97
86 84 85 93 96 87 56 44 35 32 30 30 32 35 41 49 51 54 60 70 69 63 70 70 67 68 83 96 99 97 94 96 95 93 81 78 66 67 76 92 98 100 100
92 85 71 54 44 38 36 36 38 41 43 43 41 36 30 21 14 13 19 48 87 100 92 91 85 74 82 93 100 98 93 97 99 96 88 75 66 69 90 99 92 78 86
50 41 39 40 40 39 39 37 32 24 12 7 7 7 12 22 25 21 28 32 46 84 90 97 98 96 89 95 92 97 99 98 97 96 93 80 76 80 86 78 77 79 68
40 37 35 34 30 24 12 7 6 7 7 9 13 20 20 32 76 95 88 90 86 80 84 80 90 97 96 98 99 96 96 97 97 97 96 93 94 85 81 85 83 87 86
31 29 24 14 8 6 6 6 7 8 10 12 36 81 62 70 98 93 91 96 85 85 95 97 93 96 97 96 94 95 98 97 97 95 96 95 95 93 87 89 84 90 98
21 13 9 7 6 6 7 7 8 10 12 15 25 39 64 58 58 63 72 82 94 79 93 99 99 98 97 97 93 83 84 96 96 98 98 97 96 95 90 91 88 92 98
10 8 7 6 7 8 9 11 12 16 17 19 24 29 38 43 56 65 73 77 79 93 95 100 100 96 97 97 94 85 85 90 97 98 96 97 96 98 91 93 90 94 92
8 7 7 9 10 12 13 15 18 22 26 28 29 33 35 37 40 59 73 85 85 94 98 98 97 99 99 99 100 100 98 99 96 96 96 98 96 98 96 91 88 89 92
8 9 10 12 14 15 18 20 23 25 28 32 33 33 34 37 43 49 62 78 86 91 94 95 95 97 98 98 100 100 98 99 96 96 97 97 96 92 92 89 90 88 76
10 12 13 15 17 20 22 26 30 32 36 39 42 46 46 45 48 55 62 75 86 89 93 95 95 98 98 97 97 98 97 98 97 96 97 97 96 84 91 87 90 91 78
13 15 17 21 23 25 30 34 37 40 44 47 50 54 57 61 65 70 73 74 81 89 92 94 94 96 96 96 95 96 99 98 98 96 97 96 94 88 94 92 91 92 80
17 20 22 25 28 32 36 40 44 47 50 52 53 55 58 61 64 68 70 73 76 84 94 96 94 96 95 96 96 96 97 97 97 96 96 96 93 89 93 93 93 93 83
21 24 28 32 36 40 44 47 50 52 54 56 55 54 54 57 60 64 67 70 75 79 86 96 96 96 97 96 97 97 96 96 97 96 96 96 94 87 89 94 96 94 87
27 30 34 39 43 46 49 52 54 53 48 44 46 48 49 49 51 53 58 64 66 72 83 87 97 99 95 96 98 100 100 98 98 95 96 96 96 90 93 98 98 94 92
32 38 42 45 48 52 54 55 46 43 46 51 54 56 57 58 60 61 61 61 60 61 66 81 91 95 95 97 98 100 99 98 98 96 97 97 96 92 91 97 96 95 95
41 46 50 53 56 59 55 43 44 50 55 58 61 63 65 66 67 68 68 67 66 62 61 67 82 94 97 96 96 98 98 96 96 96 96 97 97 97 95 96 96 95 96